�������l�o���
Date,Time,MP-1(��Sv/h),MP-2(��Sv/h),MP-3(��Sv/h),MP-4(��Sv/h),MP-5(��Sv/h),MP-6(��Sv/h),MP-7(��Sv/h),MP-8(��Sv/h),����,����(m/s),���J
2016/03/02,00:00,1.642,2.622,2.649,2.446,2.612,0.699,1.262,1.100,��쐼,4.2,��
2016/03/02,00:10,1.645,2.623,2.647,2.450,2.612,0.697,1.263,1.100,�쐼,4.0,��
2016/03/02,00:20,1.642,2.622,2.649,2.444,2.613,0.696,1.265,1.098,�쐼,4.5,��
2016/03/02,00:30,1.642,2.620,2.649,2.448,2.614,0.697,1.265,1.100,���쐼,4.3,��
2016/03/02,00:40,1.643,2.622,2.653,2.447,2.610,0.699,1.264,1.099,���k��,2.8,��
2016/03/02,00:50,1.640,2.623,2.651,2.447,2.610,0.698,1.266,1.100,��,2.3,��
2016/03/02,01:00,1.638,2.620,2.644,2.447,2.610,0.698,1.262,1.099,��,2.3,��
2016/03/02,01:10,1.642,2.618,2.650,2.446,2.614,0.697,1.264,1.100,��,1.4,��
2016/03/02,01:20,1.642,2.620,2.647,2.445,2.609,0.699,1.260,1.100,�쐼,1.1,��
2016/03/02,01:30,1.643,2.620,2.646,2.446,2.610,0.698,1.263,1.099,�쐼,1.1,��
2016/03/02,01:40,1.640,2.618,2.646,2.445,2.607,0.699,1.263,1.100,��쐼,1.9,��
2016/03/02,01:50,1.643,2.618,2.647,2.446,2.607,0.699,1.265,1.100,��쐼,1.5,��
2016/03/02,02:00,1.642,2.618,2.648,2.446,2.608,0.700,1.266,1.101,���쐼,1.1,��
2016/03/02,02:10,1.642,2.618,2.646,2.446,2.609,0.699,1.264,1.099,��,1.9,��
2016/03/02,02:20,1.640,2.620,2.644,2.444,2.607,0.699,1.266,1.099,�k��,2.3,��
2016/03/02,02:30,1.643,2.615,2.647,2.445,2.612,0.700,1.266,1.098,�k�k��,2.2,��
2016/03/02,02:40,1.643,2.620,2.648,2.447,2.609,0.700,1.264,1.101,�k�k��,2.5,��
2016/03/02,02:50,1.638,2.620,2.644,2.445,2.609,0.699,1.262,1.098,�k�k��,2.3,��
2016/03/02,03:00,1.642,2.618,2.646,2.442,2.610,0.698,1.262,1.099,�k�k��,1.9,��
2016/03/02,03:10,1.640,2.618,2.649,2.447,2.604,0.697,1.264,1.099,�k,1.4,��
2016/03/02,03:20,1.640,2.615,2.643,2.447,2.609,0.699,1.264,1.100,�k�k��,1.1,��
2016/03/02,03:30,1.643,2.613,2.644,2.445,2.609,0.698,1.262,1.099,�k��,0.9,��
2016/03/02,03:40,1.642,2.618,2.650,2.445,2.606,0.698,1.263,1.098,���k��,1.1,��
2016/03/02,03:50,1.642,2.618,2.645,2.447,2.607,0.699,1.261,1.098,��,0.9,��
2016/03/02,04:00,1.642,2.617,2.648,2.445,2.608,0.697,1.263,1.099,���k��,2.0,��
2016/03/02,04:10,1.642,2.618,2.646,2.444,2.609,0.698,1.263,1.099,��,2.6,��
2016/03/02,04:20,1.643,2.613,2.646,2.443,2.605,0.696,1.264,1.099,��,2.6,��
2016/03/02,04:30,1.638,2.613,2.645,2.441,2.605,0.696,1.263,1.099,���쐼,2.9,��
2016/03/02,04:40,1.640,2.613,2.645,2.443,2.605,0.696,1.265,1.099,���쐼,3.0,��
2016/03/02,04:50,1.640,2.615,2.646,2.444,2.606,0.696,1.264,1.100,���쐼,4.1,��
2016/03/02,05:00,1.638,2.613,2.644,2.445,2.598,0.697,1.264,1.099,���쐼,5.0,��
2016/03/02,05:10,1.642,2.618,2.644,2.446,2.604,0.695,1.264,1.099,��,5.1,��
2016/03/02,05:20,1.638,2.615,2.644,2.446,2.603,0.694,1.264,1.098,��,5.1,��
2016/03/02,05:30,1.638,2.617,2.647,2.446,2.601,0.694,1.263,1.098,��,4.3,��
2016/03/02,05:40,1.638,2.615,2.648,2.440,2.602,0.692,1.263,1.099,���k��,4.6,��
2016/03/02,05:50,1.640,2.615,2.641,2.443,2.603,0.691,1.262,1.098,��,4.6,��
2016/03/02,06:00,1.640,2.618,2.645,2.445,2.604,0.692,1.263,1.097,��,4.7,��
2016/03/02,06:10,1.637,2.617,2.644,2.442,2.605,0.693,1.262,1.101,��,3.5,��
2016/03/02,06:20,1.642,2.617,2.646,2.442,2.600,0.692,1.262,1.098,��,4.7,��
2016/03/02,06:30,1.643,2.617,2.639,2.442,2.606,0.694,1.263,1.099,��,5.4,��
2016/03/02,06:40,1.640,2.623,2.642,2.445,2.602,0.694,1.264,1.100,��,5.3,��
2016/03/02,06:50,1.642,2.618,2.647,2.445,2.605,0.693,1.264,1.101,��,4.5,��
2016/03/02,07:00,1.643,2.622,2.648,2.446,2.604,0.694,1.262,1.100,���쐼,3.7,��
2016/03/02,07:10,1.642,2.617,2.646,2.446,2.602,0.692,1.265,1.100,���쐼,3.7,��
2016/03/02,07:20,1.643,2.618,2.648,2.448,2.607,0.691,1.263,1.101,�쐼,3.8,��
2016/03/02,07:30,1.642,2.617,2.644,2.449,2.606,0.691,1.265,1.098,��쐼,3.4,��
2016/03/02,07:40,1.640,2.618,2.647,2.447,2.609,0.691,1.266,1.099,��쐼,3.5,��
2016/03/02,07:50,1.643,2.623,2.652,2.448,2.609,0.691,1.266,1.101,�쐼,2.8,��
2016/03/02,08:00,1.643,2.623,2.646,2.448,2.606,0.692,1.265,1.102,�쐼,3.2,��
2016/03/02,08:10,1.642,2.620,2.652,2.448,2.611,0.694,1.268,1.100,�쐼,4.6,��
2016/03/02,08:20,1.643,2.617,2.650,2.448,2.613,0.695,1.266,1.101,��쐼,4.1,��
2016/03/02,08:30,1.645,2.618,2.654,2.448,2.608,0.697,1.266,1.101,�쐼,3.8,��
2016/03/02,08:40,1.645,2.625,2.654,2.452,2.610,0.696,1.267,1.100,�쐼,4.3,��
2016/03/02,08:50,1.645,2.625,2.654,2.451,2.611,0.695,1.267,1.101,�쐼,3.6,��
2016/03/02,09:00,1.647,2.623,2.655,2.453,2.615,0.697,1.267,1.104,��쐼,4.3,��
2016/03/02,09:10,1.645,2.625,2.657,2.452,2.616,0.698,1.267,1.103,��쐼,4.6,��
2016/03/02,09:20,1.647,2.625,2.656,2.452,2.612,0.699,1.264,1.102,���쐼,3.9,��
2016/03/02,09:30,1.648,2.627,2.657,2.452,2.614,0.699,1.268,1.103,�쐼,3.8,��
2016/03/02,09:40,1.648,2.628,2.657,2.452,2.617,0.698,1.267,1.103,��쐼,3.8,��
2016/03/02,09:50,1.645,2.630,2.659,2.452,2.620,0.697,1.265,1.100,���쐼,5.2,��
2016/03/02,10:00,1.648,2.630,2.657,2.453,2.619,0.699,1.265,1.104,���쐼,4.1,��
2016/03/02,10:10,1.648,2.627,2.658,2.456,2.622,0.699,1.264,1.103,�쐼,3.6,��
2016/03/02,10:20,1.647,2.627,2.659,2.455,2.618,0.698,1.265,1.103,���k��,1.4,��
2016/03/02,10:30,1.647,2.607,2.659,2.457,2.624,0.698,1.261,1.105,�k��,2.6,��
2016/03/02,10:40,1.647,2.603,2.657,2.457,2.623,0.699,1.264,1.104,�k�k��,2.0,��
2016/03/02,10:50,1.648,2.622,2.658,2.458,2.623,0.699,1.265,1.101,���쐼,3.0,��
2016/03/02,11:00,1.652,2.628,2.662,2.456,2.620,0.700,1.264,1.105,���쐼,4.8,��
2016/03/02,11:10,1.650,2.630,2.661,2.458,2.623,0.699,1.265,1.105,��,6.2,��
2016/03/02,11:20,1.648,2.635,2.661,2.455,2.624,0.700,1.267,1.103,�쐼,4.5,��
2016/03/02,11:30,1.652,2.632,2.663,2.458,2.626,0.700,1.265,1.103,��,4.5,��
2016/03/02,11:40,1.652,2.635,2.664,2.459,2.624,0.700,1.267,1.103,��,7.2,��
2016/03/02,11:50,1.648,2.632,2.666,2.456,2.627,0.700,1.266,1.105,���쐼,6.7,��
2016/03/02,12:00,1.650,2.632,2.665,2.457,2.625,0.700,1.267,1.106,���쐼,6.7,��
2016/03/02,12:10,1.650,2.632,2.663,2.461,2.622,0.701,1.265,1.104,��,8.2,��
2016/03/02,12:20,1.650,2.633,2.663,2.460,2.625,0.699,1.266,1.103,���k��,5.8,��
2016/03/02,12:30,1.650,2.635,2.660,2.459,2.626,0.701,1.267,1.105,�k,6.1,��
2016/03/02,12:40,1.650,2.632,2.661,2.458,2.626,0.701,1.264,1.105,�k�k��,6.9,��
2016/03/02,12:50,1.647,2.632,2.658,2.456,2.625,0.700,1.264,1.103,�k�k��,6.6,��
2016/03/02,13:00,1.647,2.633,2.663,2.460,2.625,0.698,1.264,1.103,�k�k��,4.2,��
2016/03/02,13:10,1.645,2.633,2.662,2.456,2.629,0.699,1.265,1.105,�k�k��,5.3,�L
2016/03/02,13:20,1.648,2.627,2.663,2.459,2.623,0.701,1.265,1.104,�k,5.9,�L
2016/03/02,13:30,1.648,2.632,2.663,2.457,2.627,0.700,1.264,1.104,�k�k��,7.4,��
2016/03/02,13:40,1.647,-,2.660,2.458,2.628,0.700,1.265,1.103,�k�k��,6.8,��
2016/03/02,13:50,1.647,-,2.662,2.458,2.630,0.700,1.266,1.105,�k�k��,3.2,�L
2016/03/02,14:00,1.645,-,2.666,2.460,2.628,0.701,1.266,1.102,�k�k��,4.2,��
2016/03/02,14:10,1.650,-,2.665,2.462,2.629,0.698,1.266,1.102,�k,2.5,��
2016/03/02,14:20,1.648,-,2.666,2.461,2.628,0.701,1.266,1.104,�k�k��,1.2,��
2016/03/02,14:30,1.645,-,2.664,2.460,2.629,0.699,1.266,1.104,���쓌,1.7,��
2016/03/02,14:40,1.645,-,2.666,2.458,2.624,0.697,1.266,1.104,�쓌,1.4,��
2016/03/02,14:50,1.648,-,2.667,2.460,2.611,0.699,1.268,1.104,-,CALM,��
2016/03/02,15:00,1.648,-,2.669,2.460,2.633,0.698,1.268,1.104,��,1.4,�L
2016/03/02,15:10,1.648,-,2.668,2.463,2.633,0.700,1.268,1.106,���쐼,1.4,�L
2016/03/02,15:20,1.648,-,2.667,2.463,2.629,0.701,1.266,1.104,��,2.8,��
2016/03/02,15:30,1.652,-,2.667,2.462,2.629,0.701,1.267,1.104,���쐼,4.8,��
2016/03/02,15:40,1.652,-,2.669,2.462,2.631,0.703,1.269,1.105,��,8.8,��
2016/03/02,15:50,1.652,-,2.672,2.462,2.631,0.701,1.268,1.106,��,8.6,��
2016/03/02,16:00,1.650,-,2.669,2.461,2.623,0.702,1.268,1.105,��,9.4,��
2016/03/02,16:10,1.650,-,2.669,2.459,2.626,0.704,1.269,1.103,��,9.0,��
2016/03/02,16:20,1.650,2.633,2.666,2.464,2.625,0.703,1.268,1.104,��,6.6,��
2016/03/02,16:30,1.650,2.628,2.664,2.460,2.625,0.703,1.265,1.102,��,7.2,��
2016/03/02,16:40,1.652,2.633,2.671,2.460,2.625,0.704,1.268,1.104,���쐼,7.9,��
2016/03/02,16:50,1.650,2.633,2.668,2.459,2.628,0.700,1.265,1.105,��,9.2,��
2016/03/02,17:00,1.650,2.635,2.664,2.463,2.629,0.702,1.265,1.104,���쐼,6.3,��
2016/03/02,17:10,1.648,2.637,2.664,2.464,2.629,0.703,1.268,1.103,���쐼,6.7,��
2016/03/02,17:20,1.650,2.638,2.665,2.460,2.630,0.701,1.269,1.103,���쐼,6.7,��
2016/03/02,17:30,1.648,2.637,2.669,2.462,2.624,0.701,1.270,1.104,��,6.6,��
2016/03/02,17:40,1.648,2.635,2.667,2.462,2.627,0.702,1.269,1.102,��,6.2,��
2016/03/02,17:50,1.648,2.635,2.664,2.461,2.624,0.703,1.266,1.102,��,5.8,��
2016/03/02,18:00,1.650,2.637,2.664,2.463,2.627,0.704,1.269,1.104,��,6.1,��
2016/03/02,18:10,1.650,2.637,2.663,2.460,2.626,0.703,1.270,1.104,��,5.5,��
2016/03/02,18:20,1.648,2.633,2.657,2.459,2.625,0.702,1.267,1.105,��,4.0,��
2016/03/02,18:30,1.648,2.628,2.662,2.460,2.622,0.703,1.268,1.104,���k��,3.7,��
2016/03/02,18:40,1.647,2.630,2.663,2.459,2.627,0.703,1.268,1.102,�k��,3.4,��
2016/03/02,18:50,1.648,2.633,2.661,2.460,2.628,0.703,1.267,1.104,��,2.6,��
2016/03/02,19:00,1.647,2.637,2.660,2.455,2.629,0.704,1.267,1.102,���쐼,2.8,��
2016/03/02,19:10,1.647,2.635,2.656,2.456,2.628,0.701,1.266,1.103,���쐼,4.8,��
2016/03/02,19:20,1.645,2.630,2.659,2.459,2.630,0.703,1.268,1.104,��,4.0,��
2016/03/02,19:30,1.647,2.630,2.660,2.456,2.627,0.703,1.268,1.102,��,2.9,��
2016/03/02,19:40,1.645,2.633,2.662,2.458,2.625,0.703,1.268,1.102,���k��,2.2,��
2016/03/02,19:50,1.645,2.632,2.661,2.457,2.627,0.704,1.266,1.102,�k��,1.5,��
2016/03/02,20:00,1.642,2.628,2.654,2.454,2.623,0.703,1.268,1.100,�k��,1.5,��
2016/03/02,20:10,1.645,2.630,2.660,2.454,2.624,0.700,1.268,1.102,���k��,1.7,��
2016/03/02,20:20,1.645,2.627,2.661,2.455,2.623,0.702,1.267,1.101,���쐼,1.7,��
2016/03/02,20:30,1.648,2.627,2.656,2.454,2.621,0.702,1.269,1.104,���쐼,2.9,��
2016/03/02,20:40,1.647,2.630,2.658,2.455,2.625,0.701,1.268,1.102,���쐼,2.9,��
2016/03/02,20:50,1.645,2.627,2.660,2.455,2.622,0.701,1.266,1.101,�쐼,3.9,��
2016/03/02,21:00,1.645,2.627,2.655,2.457,2.624,0.701,1.265,1.102,���쐼,3.9,��
2016/03/02,21:10,1.647,2.627,2.656,2.457,2.625,0.701,1.267,1.102,�쐼,4.4,��
2016/03/02,21:20,1.645,2.628,2.656,2.454,2.623,0.701,1.267,1.101,���쐼,4.0,��
2016/03/02,21:30,1.642,2.630,2.658,2.454,2.625,0.701,1.267,1.103,���쐼,3.9,��
2016/03/02,21:40,1.645,2.627,2.659,2.456,2.618,0.701,1.264,1.102,��,4.0,��
2016/03/02,21:50,1.647,2.625,2.656,2.454,2.625,0.699,1.269,1.100,���쐼,3.2,��
2016/03/02,22:00,1.643,2.627,2.654,2.457,2.623,0.700,1.265,1.101,���쐼,3.4,��
2016/03/02,22:10,1.647,2.627,2.659,2.454,2.624,0.700,1.264,1.102,�쐼,3.6,��
2016/03/02,22:20,1.643,2.632,2.659,2.452,2.622,0.700,1.266,1.101,���쐼,3.3,��
2016/03/02,22:30,1.645,2.632,2.657,2.460,2.623,0.700,1.266,1.102,���쐼,4.0,��
2016/03/02,22:40,1.645,2.627,2.653,2.454,2.622,0.700,1.268,1.100,���쐼,3.9,��
2016/03/02,22:50,1.645,2.628,2.655,2.452,2.620,0.702,1.267,1.100,���쐼,3.3,��
2016/03/02,23:00,1.647,2.625,2.653,2.451,2.624,0.702,1.266,1.101,���쐼,4.0,��
2016/03/02,23:10,1.645,2.627,2.658,2.451,2.623,0.701,1.266,1.099,���쐼,5.8,��
2016/03/02,23:20,1.647,2.628,2.657,2.453,2.619,0.703,1.267,1.100,��,6.8,��
2016/03/02,23:30,1.647,2.627,2.657,2.456,2.620,0.699,1.265,1.101,��,6.5,��
2016/03/02,23:40,1.647,2.628,2.656,2.455,2.619,0.703,1.265,1.100,���쐼,5.7,��
2016/03/02,23:50,1.645,2.628,2.656,2.457,2.621,0.701,1.266,1.101,��,6.1,��
